Location: Home
(42.5358°N, 72.7383°W)
Time: 00:15:42
(UTC-05:00)

Vanguard 1 - Pass Details

Date: 03 December 2021
Orbit: 652 x 3830 km, 34.2° (Epoch: 21 January)

Event Time Altitude Azimuth Distance (km) Brightness Sun altitude
Rises 04:18:23 0° 276° (W) 7,969 - -29.7°
Reaches altitude 10° 04:24:11 10° 273° (W) 6,845 - -28.6°
Exits shadow 04:34:49 33° 260° (W) 4,742 12.9 -26.7°
Maximum altitude 04:44:47 54° 204° (SSW) 3,285 12.5 -24.8°
Drops below altitude 10° 04:57:20 10° 132° (SE) 4,366 14.2 -22.6°
Sets 05:00:08 0° 127° (SE) 5,024 14.8 -22.1°
